| time (UTC) | temp C | wind direction | speed KPH | gust KPH | rain 1hr cm | rain 24hr cm | rain mn cm | humidity % | barometer mb |
| 20260503002414 | 7 | 92 | 0.0 | 1.6 | 0.00 | 0.00 | 0.00 | 81 | 1017.6 |
| 20260503001523 | 7 | 92 | 0.0 | 1.6 | 0.00 | 0.00 | 0.00 | 82 | 1017.7 |
| 20260503001344 | 7 | 92 | 0.0 | 1.6 | 0.00 | 0.00 | 0.00 | 82 | 1017.6 |
| 20260503000834 | 7 | 92 | 0.0 | 1.6 | 0.00 | 0.00 | 0.00 | 82 | 1017.7 |
| 20260503000320 | 6 | 92 | 0.0 | 1.6 | 0.00 | 0.00 | 0.00 | 81 | 1017.8 |
| 20260503000053 | 6 | 93 | 0.0 | 0.0 | 0.00 | 0.00 | 0.00 | 81 | 1017.9 |
| 20260502235810 | 6 | 93 | 0.0 | 0.0 | 0.00 | 0.00 | 0.00 | 80 | 1017.9 |
| 20260502235256 | 7 | 93 | 0.0 | 0.0 | 0.00 | 0.00 | 0.00 | 79 | 1017.9 |
| 20260502234744 | 7 | 93 | 0.0 | 0.0 | 0.00 | 0.00 | 0.00 | 79 | 1017.9 |
| 20260502234511 | 7 | 93 | 0.0 | 0.0 | 0.00 | 0.00 | 0.00 | 79 | 1018.1 |
| 20260502234227 | 7 | 93 | 0.0 | 1.6 | 0.00 | 0.00 | 0.00 | 79 | 1017.9 |
| 20260502233715 | 7 | 93 | 0.0 | 1.6 | 0.00 | 0.00 | 0.00 | 78 | 1018.0 |
| 20260502233202 | 7 | 93 | 0.0 | 0.0 | 0.00 | 0.00 | 0.00 | 77 | 1018.0 |
| 20260502233036 | 7 | 93 | 0.0 | 0.0 | 0.00 | 0.00 | 0.00 | 77 | 1018.2 |
| 20260502232648 | 7 | 93 | 0.0 | 0.0 | 0.00 | 0.00 | 0.00 | 76 | 1018.0 |
| 20260502232149 | 7 | 93 | 0.0 | 0.0 | 0.00 | 0.00 | 0.00 | 77 | 1018.1 |
| 20260502231605 | 7 | 93 | 0.0 | 0.0 | 0.00 | 0.00 | 0.00 | 76 | 1018.3 |
| 20260502231105 | 8 | 93 | 0.0 | 1.6 | 0.00 | 0.00 | 0.00 | 75 | 1018.2 |
| 20260502230547 | 8 | 93 | 0.0 | 0.0 | 0.00 | 0.00 | 0.00 | 74 | 1018.2 |
| 20260502230034 | 8 | 93 | 0.0 | 0.0 | 0.00 | 0.00 | 0.00 | 74 | 1018.2 |
| 20260502230008 | 8 | 93 | 0.0 | 0.0 | 0.00 | 0.00 | 0.00 | 74 | 1018.3 |
| 20260502225511 | 8 | 93 | 0.0 | 0.0 | 0.00 | 0.00 | 0.00 | 73 | 1018.2 |
| 20260502224957 | 9 | 93 | 0.0 | 0.0 | 0.00 | 0.00 | 0.00 | 72 | 1018.2 |
| 20260502224512 | 8 | 93 | 0.0 | 0.0 | 0.00 | 0.00 | 0.00 | 71 | 1018.3 |
| 20260502224435 | 9 | 93 | 0.0 | 0.0 | 0.00 | 0.00 | 0.00 | 71 | 1018.3 |
| 20260502223922 | 9 | 93 | 0.0 | 0.0 | 0.00 | 0.00 | 0.00 | 69 | 1018.3 |
| 20260502223405 | 10 | 93 | 0.0 | 0.0 | 0.00 | 0.00 | 0.00 | 69 | 1018.3 |
| 20260502223034 | 10 | 93 | 0.0 | 0.0 | 0.00 | 0.00 | 0.00 | 68 | 1018.5 |
| 20260502222851 | 10 | 93 | 0.0 | 0.0 | 0.00 | 0.00 | 0.00 | 68 | 1018.5 |
| 20260502222336 | 10 | 93 | 0.0 | 0.0 | 0.00 | 0.00 | 0.00 | 67 | 1018.5 |
| 20260502221823 | 11 | 93 | 0.0 | 0.0 | 0.00 | 0.00 | 0.00 | 66 | 1018.5 |
| 20260502221551 | 10 | 93 | 0.0 | 0.0 | 0.00 | 0.00 | 0.00 | 65 | 1018.6 |
| 20260502221308 | 11 | 93 | 0.0 | 0.0 | 0.00 | 0.00 | 0.00 | 65 | 1018.5 |
| 20260502220756 | 11 | 93 | 0.0 | 0.0 | 0.00 | 0.00 | 0.00 | 64 | 1018.5 |
| 20260502220235 | 11 | 93 | 0.0 | 0.0 | 0.00 | 0.00 | 0.00 | 64 | 1018.5 |
| 20260502220107 | 11 | 93 | 0.0 | 0.0 | 0.00 | 0.00 | 0.00 | 64 | 1018.6 |
| 20260502215715 | 11 | 93 | 0.0 | 1.6 | 0.00 | 0.00 | 0.00 | 64 | 1018.6 |
| 20260502215200 | 11 | 93 | 0.0 | 0.0 | 0.00 | 0.00 | 0.00 | 64 | 1018.6 |
| 20260502214649 | 11 | 93 | 0.0 | 1.6 | 0.00 | 0.00 | 0.00 | 64 | 1018.5 |
| 20260502214527 | 11 | 93 | 0.0 | 1.6 | 0.00 | 0.00 | 0.00 | 64 | 1018.6 |
| 20260502214139 | 11 | 93 | 0.0 | 0.0 | 0.00 | 0.00 | 0.00 | 63 | 1018.5 |
| 20260502213624 | 11 | 93 | 0.0 | 0.0 | 0.00 | 0.00 | 0.00 | 63 | 1018.6 |
| 20260502213112 | 11 | 93 | 0.0 | 0.0 | 0.00 | 0.00 | 0.00 | 62 | 1018.7 |
| 20260502213046 | 11 | 93 | 0.0 | 0.0 | 0.00 | 0.00 | 0.00 | 62 | 1018.7 |
| 20260502212549 | 12 | 93 | 0.0 | 0.0 | 0.00 | 0.00 | 0.00 | 61 | 1018.7 |
| 20260502212042 | 12 | 93 | 0.0 | 0.0 | 0.00 | 0.00 | 0.00 | 60 | 1018.7 |
| 20260502211532 | 12 | 93 | 0.0 | 0.0 | 0.00 | 0.00 | 0.00 | 59 | 1018.7 |
| 20260502211518 | 12 | 93 | 0.0 | 0.0 | 0.00 | 0.00 | 0.00 | 59 | 1018.8 |
| 20260502211019 | 12 | 93 | 0.0 | 0.0 | 0.00 | 0.00 | 0.00 | 58 | 1018.8 |
| 20260502210500 | 13 | 93 | 0.0 | 0.0 | 0.00 | 0.00 | 0.00 | 57 | 1018.8 |
| 20260502210024 | 13 | 93 | 0.0 | 0.0 | 0.00 | 0.00 | 0.00 | 57 | 1018.9 |
| 20260502205947 | 13 | 93 | 0.0 | 0.0 | 0.00 | 0.00 | 0.00 | 56 | 1018.8 |
| 20260502205428 | 13 | 93 | 0.0 | 0.0 | 0.00 | 0.00 | 0.00 | 55 | 1018.9 |
| 20260502204916 | 14 | 93 | 0.0 | 1.6 | 0.00 | 0.00 | 0.00 | 54 | 1018.9 |
| 20260502204544 | 14 | 93 | 0.0 | 1.6 | 0.00 | 0.00 | 0.00 | 53 | 1019.0 |
| 20260502204402 | 15 | 93 | 0.0 | 0.0 | 0.00 | 0.00 | 0.00 | 52 | 1018.9 |
| 20260502203848 | 15 | 93 | 1.6 | 8.0 | 0.00 | 0.00 | 0.00 | 51 | 1018.9 |
| 20260502203335 | 15 | 46 | 1.6 | 9.7 | 0.00 | 0.00 | 0.00 | 51 | 1018.9 |
| 20260502203104 | 15 | 70 | 0.0 | 9.7 | 0.00 | 0.00 | 0.00 | 51 | 1019.0 |
| 20260502202822 | 15 | 64 | 3.2 | 9.7 | 0.00 | 0.00 | 0.00 | 51 | 1018.9 |
| 20260502202306 | 15 | 96 | 4.8 | 11.3 | 0.00 | 0.00 | 0.00 | 51 | 1019.0 |
| 20260502201752 | 15 | 88 | 3.2 | 11.3 | 0.00 | 0.00 | 0.00 | 50 | 1018.9 |
| 20260502201520 | 15 | 95 | 3.2 | 9.7 | 0.00 | 0.00 | 0.00 | 50 | 1019.0 |
| 20260502201235 | 15 | 103 | 3.2 | 9.7 | 0.00 | 0.00 | 0.00 | 50 | 1019.0 |
| 20260502200726 | 15 | 89 | 1.6 | 6.4 | 0.00 | 0.00 | 0.00 | 50 | 1019.1 |
| 20260502200227 | 16 | 86 | 1.6 | 4.8 | 0.00 | 0.00 | 0.00 | 50 | 1019.1 |
| 20260502200106 | 15 | 86 | 0.0 | 3.2 | 0.00 | 0.00 | 0.00 | 50 | 1019.2 |
| 20260502195710 | 16 | 86 | 0.0 | 3.2 | 0.00 | 0.00 | 0.00 | 50 | 1019.2 |
| 20260502195200 | 16 | 83 | 0.0 | 4.8 | 0.00 | 0.00 | 0.00 | 49 | 1019.2 |
| 20260502194508 | 16 | 84 | 0.0 | 4.8 | 0.00 | 0.00 | 0.00 | 49 | 1019.3 |
| 20260502193613 | 16 | 90 | 0.0 | 4.8 | 0.00 | 0.00 | 0.00 | 48 | 1019.2 |
| 20260502193050 | 17 | 91 | 0.0 | 1.6 | 0.00 | 0.00 | 0.00 | 48 | 1019.2 |
| 20260502193026 | 16 | 91 | 0.0 | 1.6 | 0.00 | 0.00 | 0.00 | 48 | 1019.3 |
| 20260502192533 | 17 | 91 | 0.0 | 4.8 | 0.00 | 0.00 | 0.00 | 47 | 1019.3 |
| 20260502191542 | 17 | 92 | 1.6 | 9.7 | 0.00 | 0.00 | 0.00 | 46 | 1019.3 |
| 20260502190948 | 17 | 91 | 3.2 | 11.3 | 0.00 | 0.00 | 0.00 | 46 | 1019.2 |
| 20260502190440 | 17 | 96 | 3.2 | 6.4 | 0.00 | 0.00 | 0.00 | 46 | 1019.2 |
| 20260502190006 | 17 | 92 | 3.2 | 8.0 | 0.00 | 0.00 | 0.00 | 46 | 1019.3 |
| 20260502185927 | 17 | 63 | 3.2 | 9.7 | 0.00 | 0.00 | 0.00 | 46 | 1019.2 |
| 20260502185418 | 18 | 87 | 3.2 | 9.7 | 0.00 | 0.00 | 0.00 | 45 | 1019.2 |
| 20260502184905 | 18 | 79 | 4.8 | 11.3 | 0.00 | 0.00 | 0.00 | 45 | 1019.1 |
| 20260502184635 | 18 | 94 | 1.6 | 11.3 | 0.00 | 0.00 | 0.00 | 45 | 1019.2 |
| 20260502183331 | 18 | 110 | 3.2 | 12.9 | 0.00 | 0.00 | 0.00 | 44 | 1019.1 |
| 20260502183108 | 18 | 137 | 1.6 | 11.3 | 0.00 | 0.00 | 0.00 | 45 | 1019.1 |
| 20260502182819 | 18 | 115 | 4.8 | 9.7 | 0.00 | 0.00 | 0.00 | 44 | 1019.0 |
| 20260502182309 | 19 | 87 | 4.8 | 9.7 | 0.00 | 0.00 | 0.00 | 44 | 1019.0 |
| 20260502181758 | 19 | 103 | 4.8 | 12.9 | 0.00 | 0.00 | 0.00 | 44 | 1019.0 |
| 20260502181535 | 19 | 106 | 1.6 | 12.9 | 0.00 | 0.00 | 0.00 | 44 | 1019.0 |
| 20260502181254 | 19 | 128 | 6.4 | 12.9 | 0.00 | 0.00 | 0.00 | 44 | 1018.9 |
| 20260502180745 | 19 | 119 | 4.8 | 14.5 | 0.00 | 0.00 | 0.00 | 43 | 1018.9 |
| 20260502170154 | 21 | 114 | 6.4 | 12.9 | 0.00 | 0.00 | 0.00 | 41 | 1018.9 |
| 20260502170116 | 21 | 94 | 8.0 | 17.7 | 0.00 | 0.00 | 0.00 | 41 | 1018.8 |
| 20260502163532 | 22 | 106 | 8.0 | 17.7 | 0.00 | 0.00 | 0.00 | 40 | 1018.8 |
| 20260502163058 | 22 | 156 | 9.7 | 17.7 | 0.00 | 0.00 | 0.00 | 39 | 1019.0 |
| 20260502163020 | 22 | 106 | 8.0 | 16.1 | 0.00 | 0.00 | 0.00 | 39 | 1018.9 |
| 20260502161958 | 22 | 146 | 6.4 | 14.5 | 0.00 | 0.00 | 0.00 | 38 | 1018.9 |
| 20260502161521 | 22 | 105 | 6.4 | 14.5 | 0.00 | 0.00 | 0.00 | 37 | 1019.1 |
| 20260502160417 | 23 | 61 | 3.2 | 8.0 | 0.00 | 0.00 | 0.00 | 30 | 1019.1 |
| 20260502151719 | 23 | 11 | 4.8 | 14.5 | 0.00 | 0.00 | 0.00 | 30 | 1019.5 |
| 20260502151559 | 22 | 40 | 4.8 | 14.5 | 0.00 | 0.00 | 0.00 | 29 | 1019.6 |
| 20260502151200 | 23 | 24 | 4.8 | 14.5 | 0.00 | 0.00 | 0.00 | 30 | 1019.5 |
| 20260502150647 | 23 | 42 | 6.4 | 14.5 | 0.00 | 0.00 | 0.00 | 29 | 1019.6 |
| 20260502150136 | 23 | 78 | 6.4 | 14.5 | 0.00 | 0.00 | 0.00 | 29 | 1019.7 |
| 20260502130628 | 23 | 19 | 4.8 | 9.7 | 0.00 | 0.00 | 0.00 | 33 | 1020.7 |
| 20260502130113 | 23 | 57 | 4.8 | 12.9 | 0.00 | 0.00 | 0.00 | 34 | 1020.8 |
| 20260502123521 | 22 | 38 | 4.8 | 16.1 | 0.00 | 0.00 | 0.00 | 35 | 1021.1 |
| 20260502123039 | 22 | 105 | 1.6 | 16.1 | 0.00 | 0.00 | 0.00 | 35 | 1021.4 |
| 20260502122447 | 22 | 88 | 3.2 | 12.9 | 0.00 | 0.00 | 0.00 | 35 | 1021.2 |
| 20260502121931 | 22 | 5 | 4.8 | 17.7 | 0.00 | 0.00 | 0.00 | 34 | 1021.4 |
| 20260502121606 | 22 | 49 | 3.2 | 17.7 | 0.00 | 0.00 | 0.00 | 35 | 1021.6 |
| 20260502121417 | 22 | 38 | 6.4 | 17.7 | 0.00 | 0.00 | 0.00 | 35 | 1021.4 |
| 20260502115834 | 22 | 9 | 4.8 | 14.5 | 0.00 | 0.00 | 0.00 | 36 | 1021.7 |
| 20260502115320 | 22 | 311 | 6.4 | 12.9 | 0.00 | 0.00 | 0.00 | 39 | 1021.7 |
| 20260502114804 | 21 | 5 | 8.0 | 19.3 | 0.00 | 0.00 | 0.00 | 37 | 1021.9 |
| 20260502114533 | 21 | 306 | 6.4 | 19.3 | 0.00 | 0.00 | 0.00 | 37 | 1022.1 |
| 20260502114250 | 22 | 17 | 8.0 | 19.3 | 0.00 | 0.00 | 0.00 | 38 | 1021.9 |
| 20260502113736 | 21 | 323 | 6.4 | 19.3 | 0.00 | 0.00 | 0.00 | 38 | 1021.9 |
| 20260502113221 | 21 | 273 | 6.4 | 19.3 | 0.00 | 0.00 | 0.00 | 37 | 1021.9 |
| 20260502113055 | 21 | 90 | 4.8 | 19.3 | 0.00 | 0.00 | 0.00 | 38 | 1022.1 |
| 20260502112709 | 21 | 184 | 8.0 | 19.3 | 0.00 | 0.00 | 0.00 | 37 | 1022.0 |
| 20260502112159 | 21 | 332 | 8.0 | 19.3 | 0.00 | 0.00 | 0.00 | 38 | 1022.2 |
| 20260502111637 | 21 | 84 | 4.8 | 14.5 | 0.00 | 0.00 | 0.00 | 38 | 1022.1 |
| 20260502111509 | 21 | 58 | 6.4 | 14.5 | 0.00 | 0.00 | 0.00 | 39 | 1022.4 |
| 20260502111123 | 21 | 134 | 4.8 | 14.5 | 0.00 | 0.00 | 0.00 | 38 | 1022.2 |
| 20260502110100 | 21 | 113 | 6.4 | 16.1 | 0.00 | 0.00 | 0.00 | 37 | 1022.4 |
| 20260502110034 | 21 | 115 | 8.0 | 16.1 | 0.00 | 0.00 | 0.00 | 38 | 1022.6 |
| 20260502105042 | 21 | 101 | 6.4 | 14.5 | 0.00 | 0.00 | 0.00 | 38 | 1022.5 |
| 20260502104533 | 21 | 88 | 4.8 | 14.5 | 0.00 | 0.00 | 0.00 | 39 | 1022.5 |
| 20260502104508 | 21 | 59 | 6.4 | 14.5 | 0.00 | 0.00 | 0.00 | 39 | 1022.8 |
| 20260502103513 | 21 | 21 | 4.8 | 9.7 | 0.00 | 0.00 | 0.00 | 40 | 1022.7 |
| 20260502103051 | 20 | 69 | 1.6 | 9.7 | 0.00 | 0.00 | 0.00 | 42 | 1023.0 |
| 20260502103005 | 21 | 53 | 6.4 | 14.5 | 0.00 | 0.00 | 0.00 | 42 | 1022.6 |
| 20260502102447 | 21 | 250 | 4.8 | 14.5 | 0.00 | 0.00 | 0.00 | 40 | 1022.7 |
| 20260502101946 | 21 | 327 | 4.8 | 12.9 | 0.00 | 0.00 | 0.00 | 41 | 1022.8 |
| 20260502101514 | 20 | 355 | 3.2 | 12.9 | 0.00 | 0.00 | 0.00 | 40 | 1023.1 |
| 20260502101437 | 21 | 355 | 4.8 | 12.9 | 0.00 | 0.00 | 0.00 | 40 | 1022.8 |
| 20260502100928 | 21 | 9 | 6.4 | 16.1 | 0.00 | 0.00 | 0.00 | 40 | 1023.0 |
| 20260502100419 | 20 | 306 | 4.8 | 16.1 | 0.00 | 0.00 | 0.00 | 40 | 1023.0 |
| 20260502090743 | 20 | 14 | 6.4 | 12.9 | 0.00 | 0.00 | 0.00 | 43 | 1023.7 |
| 20260502090236 | 20 | 38 | 4.8 | 11.3 | 0.00 | 0.00 | 0.00 | 43 | 1023.6 |
| 20260502071358 | 15 | 253 | 3.2 | 8.0 | 0.00 | 0.00 | 0.00 | 61 | 1024.2 |
| 20260502070849 | 15 | 233 | 4.8 | 8.0 | 0.00 | 0.00 | 0.00 | 61 | 1024.2 |
| 20260502070339 | 15 | 190 | 4.8 | 8.0 | 0.00 | 0.00 | 0.00 | 62 | 1024.2 |
| 20260502070004 | 15 | 186 | 3.2 | 8.0 | 0.00 | 0.00 | 0.00 | 63 | 1024.4 |
| 20260502065822 | 15 | 222 | 4.8 | 8.0 | 0.00 | 0.00 | 0.00 | 63 | 1024.1 |
| 20260502065310 | 14 | 190 | 3.2 | 8.0 | 0.00 | 0.00 | 0.00 | 63 | 1024.2 |
| 20260502064750 | 14 | 224 | 3.2 | 8.0 | 0.00 | 0.00 | 0.00 | 66 | 1024.2 |
| 20260502064528 | 13 | 224 | 1.6 | 8.0 | 0.00 | 0.00 | 0.00 | 66 | 1024.5 |
| 20260502064236 | 14 | 232 | 3.2 | 8.0 | 0.00 | 0.00 | 0.00 | 65 | 1024.2 |
| 20260502063724 | 14 | 220 | 3.2 | 4.8 | 0.00 | 0.00 | 0.00 | 66 | 1024.3 |
| 20260502063208 | 13 | 195 | 1.6 | 6.4 | 0.00 | 0.00 | 0.00 | 66 | 1024.2 |
| 20260502063040 | 13 | 195 | 1.6 | 6.4 | 0.00 | 0.00 | 0.00 | 65 | 1024.5 |
| 20260502062654 | 13 | 220 | 1.6 | 6.4 | 0.00 | 0.00 | 0.00 | 65 | 1024.2 |
| 20260502062143 | 13 | 208 | 1.6 | 4.8 | 0.00 | 0.00 | 0.00 | 68 | 1024.1 |
| 20260502061623 | 13 | 209 | 1.6 | 4.8 | 0.00 | 0.00 | 0.00 | 68 | 1024.2 |
| 20260502061504 | 12 | 246 | 1.6 | 4.8 | 0.00 | 0.00 | 0.00 | 68 | 1024.5 |
| 20260502061115 | 13 | 248 | 1.6 | 4.8 | 0.00 | 0.00 | 0.00 | 67 | 1024.2 |
| 20260502060602 | 13 | 253 | 1.6 | 4.8 | 0.00 | 0.00 | 0.00 | 69 | 1024.2 |
| 20260502060025 | 12 | 271 | 1.6 | 3.2 | 0.00 | 0.00 | 0.00 | 70 | 1024.5 |
| 20260502055549 | 12 | 348 | 0.0 | 1.6 | 0.00 | 0.00 | 0.00 | 72 | 1024.2 |
| 20260502055022 | 12 | 348 | 0.0 | 3.2 | 0.00 | 0.00 | 0.00 | 73 | 1024.1 |
| 20260502054547 | 11 | 348 | 0.0 | 3.2 | 0.00 | 0.00 | 0.00 | 73 | 1024.4 |
| 20260502054507 | 12 | 348 | 1.6 | 3.2 | 0.00 | 0.00 | 0.00 | 74 | 1024.1 |
| 20260502053953 | 11 | 347 | 0.0 | 1.6 | 0.00 | 0.00 | 0.00 | 75 | 1024.1 |
| 20260502053452 | 11 | 347 | 0.0 | 1.6 | 0.00 | 0.00 | 0.00 | 78 | 1024.0 |
| 20260502053108 | 10 | 347 | 0.0 | 1.6 | 0.00 | 0.00 | 0.00 | 80 | 1024.5 |
| 20260502052923 | 10 | 347 | 0.0 | 0.0 | 0.00 | 0.00 | 0.00 | 81 | 1024.1 |
| 20260502052408 | 10 | 347 | 0.0 | 0.0 | 0.00 | 0.00 | 0.00 | 84 | 1024.2 |
| 20260502051849 | 9 | 347 | 0.0 | 0.0 | 0.00 | 0.00 | 0.00 | 86 | 1024.2 |
| 20260502051513 | 8 | 347 | 0.0 | 0.0 | 0.00 | 0.00 | 0.00 | 88 | 1024.5 |
| 20260502051333 | 8 | 347 | 0.0 | 0.0 | 0.00 | 0.00 | 0.00 | 88 | 1024.2 |
| 20260502050305 | 7 | 347 | 0.0 | 0.0 | 0.00 | 0.00 | 0.00 | 92 | 1024.2 |
| 20260502050041 | 7 | 347 | 0.0 | 0.0 | 0.00 | 0.00 | 0.00 | 93 | 1024.5 |
| 20260502045753 | 7 | 347 | 0.0 | 0.0 | 0.00 | 0.00 | 0.00 | 94 | 1024.1 |
| 20260502045238 | 7 | 347 | 0.0 | 0.0 | 0.00 | 0.00 | 0.00 | 94 | 1024.1 |
| 20260502044725 | 6 | 346 | 0.0 | 0.0 | 0.00 | 0.00 | 0.00 | 95 | 1024.1 |
| 20260502044558 | 6 | 347 | 0.0 | 0.0 | 0.00 | 0.00 | 0.00 | 95 | 1024.4 |
| 20260502044213 | 6 | 347 | 0.0 | 0.0 | 0.00 | 0.00 | 0.00 | 95 | 1024.0 |
| 20260502043658 | 5 | 347 | 0.0 | 0.0 | 0.00 | 0.00 | 0.00 | 95 | 1024.1 |
| 20260502043145 | 5 | 346 | 0.0 | 0.0 | 0.00 | 0.00 | 0.00 | 95 | 1024.0 |
| 20260502043021 | 4 | 346 | 0.0 | 0.0 | 0.00 | 0.00 | 0.00 | 95 | 1024.3 |
| 20260502042631 | 4 | 346 | 0.0 | 0.0 | 0.00 | 0.00 | 0.00 | 95 | 1023.9 |
| 20260502042117 | 3 | 346 | 0.0 | 0.0 | 0.00 | 0.00 | 0.00 | 94 | 1023.9 |
| 20260502041557 | 3 | 346 | 0.0 | 0.0 | 0.00 | 0.00 | 0.00 | 94 | 1023.9 |
| 20260502041537 | 3 | 347 | 0.0 | 0.0 | 0.00 | 0.00 | 0.00 | 94 | 1024.2 |
| 20260502041043 | 3 | 346 | 0.0 | 0.0 | 0.00 | 0.00 | 0.00 | 94 | 1023.8 |
| 20260502040529 | 2 | 346 | 0.0 | 0.0 | 0.00 | 0.00 | 0.00 | 94 | 1023.8 |
| 20260502040052 | 2 | 347 | 0.0 | 0.0 | 0.00 | 0.00 | 0.00 | 94 | 1024.1 |
| 20260502040014 | 2 | 346 | 0.0 | 0.0 | 0.00 | 0.00 | 0.00 | 93 | 1023.7 |
| 20260502035453 | 2 | 346 | 0.0 | 0.0 | 0.00 | 0.00 | 0.00 | 93 | 1023.7 |
| 20260502034944 | 2 | 346 | 0.0 | 0.0 | 0.00 | 0.00 | 0.00 | 93 | 1023.7 |
| 20260502034519 | 2 | 346 | 0.0 | 0.0 | 0.00 | 0.00 | 0.00 | 93 | 1024.1 |
| 20260502034445 | 2 | 346 | 0.0 | 0.0 | 0.00 | 0.00 | 0.00 | 93 | 1023.7 |
| 20260502033411 | 2 | 346 | 0.0 | 0.0 | 0.00 | 0.00 | 0.00 | 93 | 1023.7 |
| 20260502033043 | 2 | 346 | 0.0 | 0.0 | 0.00 | 0.00 | 0.00 | 93 | 1024.0 |
| 20260502032902 | 2 | 346 | 0.0 | 0.0 | 0.00 | 0.00 | 0.00 | 93 | 1023.7 |
| 20260502032348 | 2 | 346 | 0.0 | 0.0 | 0.00 | 0.00 | 0.00 | 93 | 1023.8 |
| 20260502031519 | 2 | 346 | 0.0 | 0.0 | 0.00 | 0.00 | 0.00 | 93 | 1024.1 |
| 20260502031338 | 2 | 347 | 0.0 | 0.0 | 0.00 | 0.00 | 0.00 | 93 | 1023.8 |
| 20260502030828 | 3 | 346 | 0.0 | 0.0 | 0.00 | 0.00 | 0.00 | 93 | 1023.7 |
| 20260502030318 | 3 | 346 | 0.0 | 0.0 | 0.00 | 0.00 | 0.00 | 93 | 1023.7 |
| 20260502030002 | 2 | 346 | 0.0 | 0.0 | 0.00 | 0.00 | 0.00 | 92 | 1024.0 |
| 20260502025812 | 3 | 346 | 0.0 | 0.0 | 0.00 | 0.00 | 0.00 | 92 | 1023.7 |
| 20260502025307 | 3 | 346 | 0.0 | 0.0 | 0.00 | 0.00 | 0.00 | 92 | 1023.6 |
| 20260502024804 | 3 | 346 | 0.0 | 0.0 | 0.00 | 0.00 | 0.00 | 92 | 1023.7 |
| 20260502024551 | 3 | 346 | 0.0 | 0.0 | 0.00 | 0.00 | 0.00 | 92 | 1024.0 |
| 20260502024303 | 3 | 346 | 0.0 | 0.0 | 0.00 | 0.00 | 0.00 | 92 | 1023.6 |
| 20260502023803 | 3 | 346 | 0.0 | 0.0 | 0.00 | 0.00 | 0.00 | 92 | 1023.7 |
| 20260502023303 | 3 | 346 | 0.0 | 0.0 | 0.00 | 0.00 | 0.00 | 92 | 1023.6 |
| 20260502023042 | 3 | 346 | 0.0 | 0.0 | 0.00 | 0.00 | 0.00 | 92 | 1024.0 |
| 20260502022801 | 3 | 347 | 0.0 | 0.0 | 0.00 | 0.00 | 0.00 | 92 | 1023.7 |
| 20260502022300 | 3 | 346 | 0.0 | 0.0 | 0.00 | 0.00 | 0.00 | 92 | 1023.7 |
| 20260502021750 | 3 | 346 | 0.0 | 0.0 | 0.00 | 0.00 | 0.00 | 92 | 1023.6 |
| 20260502021524 | 3 | 346 | 0.0 | 0.0 | 0.00 | 0.00 | 0.00 | 92 | 1024.0 |
| 20260502021246 | 3 | 346 | 0.0 | 0.0 | 0.00 | 0.00 | 0.00 | 92 | 1023.7 |
| 20260502020737 | 3 | 346 | 0.0 | 0.0 | 0.00 | 0.00 | 0.00 | 92 | 1023.6 |
| 20260502020228 | 3 | 346 | 0.0 | 0.0 | 0.00 | 0.00 | 0.00 | 92 | 1023.6 |
| 20260502020015 | 3 | 346 | 0.0 | 0.0 | 0.00 | 0.00 | 0.00 | 92 | 1023.9 |
| 20260502015727 | 3 | 346 | 0.0 | 0.0 | 0.00 | 0.00 | 0.00 | 91 | 1023.6 |
| 20260502015218 | 3 | 346 | 0.0 | 0.0 | 0.00 | 0.00 | 0.00 | 91 | 1023.6 |
| 20260502014713 | 4 | 346 | 0.0 | 0.0 | 0.00 | 0.00 | 0.00 | 91 | 1023.6 |
| 20260502014601 | 3 | 346 | 0.0 | 0.0 | 0.00 | 0.00 | 0.00 | 91 | 1023.9 |
| 20260502014212 | 4 | 346 | 0.0 | 0.0 | 0.00 | 0.00 | 0.00 | 91 | 1023.6 |
| 20260502013710 | 4 | 346 | 0.0 | 0.0 | 0.00 | 0.00 | 0.00 | 91 | 1023.7 |
| 20260502013208 | 4 | 346 | 0.0 | 0.0 | 0.00 | 0.00 | 0.00 | 91 | 1023.7 |
| 20260502013148 | 4 | 347 | 0.0 | 0.0 | 0.00 | 0.00 | 0.00 | 91 | 1024.0 |
| 20260502012706 | 4 | 346 | 0.0 | 0.0 | 0.00 | 0.00 | 0.00 | 91 | 1023.7 |
| 20260502011657 | 4 | 346 | 0.0 | 0.0 | 0.00 | 0.00 | 0.00 | 90 | 1023.7 |
| 20260502011554 | 4 | 346 | 0.0 | 0.0 | 0.00 | 0.00 | 0.00 | 90 | 1024.0 |
| 20260502011157 | 4 | 346 | 0.0 | 0.0 | 0.00 | 0.00 | 0.00 | 90 | 1023.7 |
| 20260502010649 | 4 | 346 | 0.0 | 0.0 | 0.00 | 0.00 | 0.00 | 90 | 1023.7 |
| 20260502010132 | 5 | 346 | 0.0 | 0.0 | 0.00 | 0.00 | 0.00 | 90 | 1023.7 |
| 20260502010004 | 4 | 346 | 0.0 | 0.0 | 0.00 | 0.00 | 0.00 | 90 | 1024.0 |
| 20260502005620 | 5 | 346 | 0.0 | 0.0 | 0.00 | 0.00 | 0.00 | 90 | 1023.7 |
| 20260502005110 | 5 | 346 | 0.0 | 0.0 | 0.00 | 0.00 | 0.00 | 90 | 1023.7 |
| 20260502004553 | 5 | 346 | 0.0 | 0.0 | 0.00 | 0.00 | 0.00 | 89 | 1023.7 |
| 20260502004550 | 5 | 346 | 0.0 | 0.0 | 0.00 | 0.00 | 0.00 | 89 | 1024.0 |
| 20260502004044 | 5 | 346 | 0.0 | 0.0 | 0.00 | 0.00 | 0.00 | 89 | 1023.7 |
| 20260502003536 | 5 | 346 | 0.0 | 0.0 | 0.00 | 0.00 | 0.00 | 89 | 1023.8 |
| 20260502003006 | 5 | 346 | 0.0 | 0.0 | 0.00 | 0.00 | 0.00 | 89 | 1024.1 |